User: anonymous   Login
Location: Morgantown
(40.9734°N, 80.6323°W)
Time: 11:20:32
(UTC+00:00)
Language:

LO-87 - Orbit

View from above orbital plane
View from above orbital plane
View from above satellite
View from above satellite

Ground track
Ground track

The orbit data is extracted from the following two-line orbital elements,

1 41557U 16033B   21263.12342890  .00002533  00000-0  89976-4 0  9994
2 41557  97.3935 356.5609 0011188 257.3216 221.1502 15.29917476296000
Epoch (UTC): 20 September 2021 02:57:44
Eccentricity: 0.0011188
inclination: 97.3935°
perigee height: 468 km
apogee height: 484 km
right ascension of ascending node: 356.5609°
argument of perigee: 257.3216°
revolutions per day: 15.29917476
mean anomaly at epoch: 221.1502°
orbit number at epoch: 29600

The dashed part of the orbit path shows where the satellite is in the earth's shadow,  

DLR